When you browse on this site, cookies collect data to enhance your experience and personalize the content and advertising you see.
Visit our Privacy Policy to learn more. By continuing to use the site, you agree to this use of cookies and data.
  • In United Kingdom
  • List of Countries
  • For 7 days
  • Water Temperature
  • Weather Map
  • Weather Widgets
  • user-avatar
    Login

    Hourly Weather Abingdon

    Today, 28 February, Friday

    Time Temperature Precipitation Wind Pressure Humidity
    00:00 +1°C° 0 mm 2 mps 755 mmHg 86%
    01:00 +1°C° 0 mm 2 mps 755 mmHg 86%
    02:00 0°C° 0 mm 3 mps 754 mmHg 87%
    03:00 0°C° 0 mm 3 mps 754 mmHg 87%
    04:00 +1°C° 0 mm 3 mps 754 mmHg 86%
    05:00 0°C° 0 mm 4 mps 753 mmHg 86%
    06:00 +1°C° 0 mm 4 mps 753 mmHg 85%
    07:00 +1°C° 0.2 mm 5 mps 752 mmHg 88%
    08:00 +2°C° 0.2 mm 7 mps 750 mmHg 91%
    09:00 +1°C° 0.2 mm 8 mps 749 mmHg 93%
    10:00 +2°C° 1.2 mm 9 mps 748 mmHg 93%
    11:00 +3°C° 1.2 mm 9 mps 747 mmHg 93%
    12:00 +3°C° 1.2 mm 10 mps 746 mmHg 93%
    13:00 +6°C° 1.1 mm 9 mps 745 mmHg 93%
    14:00 +7°C° 1.1 mm 9 mps 744 mmHg 93%
    15:00 +10°C° 1.1 mm 8 mps 743 mmHg 92%
    16:00 +10°C° 0 mm 8 mps 742 mmHg 92%
    17:00 +9°C° 0 mm 8 mps 742 mmHg 91%
    18:00 +9°C° 0 mm 7 mps 741 mmHg 90%
    19:00 +9°C° 0.1 mm 8 mps 741 mmHg 90%
    20:00 +8°C° 0.1 mm 9 mps 740 mmHg 90%
    21:00 +8°C° 0.1 mm 9 mps 740 mmHg 89%
    22:00 +8°C° 0 mm 10 mps 739 mmHg 89%
    23:00 +8°C° 0 mm 10 mps 738 mmHg 88%

    Tomorrow, 29 February, Saturday

    Time Temperature Precipitation Wind Pressure Humidity
    00:00 +8°C° 0 mm 10 mps 737 mmHg 88%
    01:00 +8°C° 0.2 mm 11 mps 735 mmHg 88%
    02:00 +8°C° 0.2 mm 11 mps 734 mmHg 88%
    03:00 +8°C° 0.2 mm 12 mps 732 mmHg 89%
    04:00 +7°C° 1.6 mm 11 mps 732 mmHg 89%
    05:00 +7°C° 1.6 mm 11 mps 731 mmHg 90%
    06:00 +6°C° 1.6 mm 11 mps 730 mmHg 90%
    07:00 +5°C° 0.8 mm 10 mps 730 mmHg 89%
    08:00 +3°C° 0.8 mm 9 mps 730 mmHg 87%
    09:00 +2°C° 0.8 mm 9 mps 730 mmHg 86%
    10:00 +2°C° 0.2 mm 10 mps 731 mmHg 79%
    11:00 +2°C° 0.2 mm 10 mps 732 mmHg 73%
    12:00 +2°C° 0.2 mm 11 mps 733 mmHg 67%
    13:00 +2°C° 0.1 mm 11 mps 733 mmHg 66%
    14:00 +2°C° 0.1 mm 11 mps 733 mmHg 65%
    15:00 +2°C° 0.1 mm 11 mps 733 mmHg 64%
    16:00 +2°C° 0 mm 10 mps 733 mmHg 66%
    17:00 +1°C° 0 mm 9 mps 734 mmHg 68%
    18:00 0°C° 0 mm 8 mps 734 mmHg 70%
    19:00 0°C° 0 mm 8 mps 734 mmHg 72%
    20:00 0°C° 0 mm 8 mps 734 mmHg 74%
    21:00 0°C° 0 mm 8 mps 734 mmHg 76%
    22:00 0°C° 0 mm 8 mps 734 mmHg 76%
    23:00 0°C° 0 mm 8 mps 734 mmHg 75%

    Day after tomorrow, 1 March, Sunday

    Time Temperature Precipitation Wind Pressure Humidity
    00:00 0°C° 0 mm 8 mps 734 mmHg 74%
    01:00 0°C° 0.2 mm 9 mps 735 mmHg 76%
    02:00 0°C° 0.2 mm 9 mps 735 mmHg 78%
    03:00 0°C° 0.2 mm 9 mps 735 mmHg 79%
    04:00 0°C° 0 mm 8 mps 735 mmHg 79%
    05:00 0°C° 0 mm 8 mps 735 mmHg 79%
    06:00 -1°C° 0 mm 7 mps 735 mmHg 78%
    07:00 0°C° 0 mm 8 mps 735 mmHg 77%
    08:00 +1°C° 0 mm 8 mps 735 mmHg 77%
    09:00 +1°C° 0 mm 8 mps 735 mmHg 76%
    10:00 +2°C° 0.1 mm 9 mps 735 mmHg 72%
    11:00 +3°C° 0.1 mm 9 mps 736 mmHg 69%
    12:00 +5°C° 0.1 mm 9 mps 736 mmHg 65%
    13:00 +5°C° 0.1 mm 9 mps 736 mmHg 65%
    14:00 +5°C° 0.1 mm 9 mps 735 mmHg 65%
    15:00 +5°C° 0.1 mm 8 mps 735 mmHg 65%
    16:00 +4°C° 0 mm 7 mps 735 mmHg 70%
    17:00 +3°C° 0 mm 6 mps 735 mmHg 75%
    18:00 +1°C° 0 mm 4 mps 735 mmHg 79%
    19:00 +1°C° 0 mm 4 mps 735 mmHg 81%
    20:00 +1°C° 0 mm 4 mps 735 mmHg 84%
    21:00 0°C° 0 mm 4 mps 735 mmHg 86%
    22:00 +1°C° 0 mm 3 mps 735 mmHg 86%
    23:00 +2°C° 0 mm 2 mps 734 mmHg 87%

    2 March, Monday

    Time Temperature Precipitation Wind Pressure Humidity
    00:00 +2°C° 0 mm 2 mps 734 mmHg 88%
    01:00 +2°C° 0.3 mm 2 mps 734 mmHg 89%
    02:00 +3°C° 0.3 mm 1 mps 734 mmHg 89%
    03:00 +3°C° 0.3 mm 1 mps 734 mmHg 90%
    04:00 +1°C° 0 mm 2 mps 734 mmHg 89%
    05:00 +1°C° 0 mm 2 mps 735 mmHg 89%
    06:00 -1°C° 0 mm 3 mps 735 mmHg 89%
    07:00 -1°C° 0 mm 4 mps 736 mmHg 83%
    08:00 +1°C° 0 mm 5 mps 736 mmHg 78%
    09:00 +2°C° 0 mm 6 mps 737 mmHg 73%
    10:00 +3°C° 0 mm 6 mps 737 mmHg 69%
    11:00 +3°C° 0 mm 7 mps 738 mmHg 64%
    12:00 +4°C° 0 mm 7 mps 738 mmHg 60%
    13:00 +4°C° 0.2 mm 7 mps 739 mmHg 61%
    14:00 +4°C° 0.2 mm 7 mps 739 mmHg 62%
    15:00 +4°C° 0.2 mm 7 mps 739 mmHg 62%
    16:00 +3°C° 0.1 mm 6 mps 739 mmHg 67%
    17:00 +2°C° 0.1 mm 5 mps 740 mmHg 72%
    18:00 +1°C° 0.1 mm 5 mps 741 mmHg 77%
    19:00 0°C° 0 mm 5 mps 741 mmHg 78%
    20:00 0°C° 0 mm 5 mps 742 mmHg 80%
    21:00 0°C° 0 mm 5 mps 743 mmHg 81%
    22:00 -1°C° 0 mm 5 mps 743 mmHg 82%
    23:00 -1°C° 0 mm 5 mps 743 mmHg 83%

    3 March, Tuesday

    Time Temperature Precipitation Wind Pressure Humidity
    00:00 -1°C° 0 mm 5 mps 744 mmHg 83%
    01:00 -1°C° 0 mm 5 mps 744 mmHg 84%
    02:00 -1°C° 0 mm 5 mps 744 mmHg 84%
    03:00 -2°C° 0 mm 5 mps 745 mmHg 84%
    04:00 -1°C° 0 mm 5 mps 745 mmHg 83%
    05:00 -1°C° 0 mm 5 mps 746 mmHg 83%
    06:00 -1°C° 0 mm 5 mps 746 mmHg 83%
    07:00 -1°C° 0 mm 6 mps 746 mmHg 78%
    08:00 +1°C° 0 mm 6 mps 747 mmHg 74%
    09:00 +2°C° 0 mm 7 mps 747 mmHg 69%
    10:00 +3°C° 0 mm 7 mps 747 mmHg 66%
    11:00 +4°C° 0 mm 7 mps 747 mmHg 63%
    12:00 +5°C° 0 mm 7 mps 747 mmHg 59%
    13:00 +5°C° 0.1 mm 6 mps 747 mmHg 60%
    14:00 +5°C° 0.1 mm 6 mps 747 mmHg 61%
    15:00 +6°C° 0.1 mm 5 mps 746 mmHg 61%
    16:00 +5°C° 0 mm 4 mps 746 mmHg 68%
    17:00 +4°C° 0 mm 4 mps 746 mmHg 74%
    18:00 +2°C° 0 mm 3 mps 746 mmHg 80%
    19:00 +3°C° 0 mm 2 mps 747 mmHg 84%
    20:00 +2°C° 0 mm 2 mps 747 mmHg 87%
    21:00 +1°C° 0 mm 2 mps 747 mmHg 91%
    22:00 +2°C° 0 mm 1 mps 747 mmHg 90%
    23:00 +2°C° 0 mm 1 mps 747 mmHg 90%

    4 March, Wednesday

    Time Temperature Precipitation Wind Pressure Humidity
    00:00 0°C° 0 mm 0 mps 746 mmHg 89%
    01:00 0°C° 0 mm 0 mps 746 mmHg 89%
    02:00 0°C° 0 mm 0 mps 746 mmHg 88%
    03:00 +1°C° 0 mm 1 mps 746 mmHg 87%
    04:00 +1°C° 0 mm 1 mps 746 mmHg 86%
    05:00 +1°C° 0 mm 1 mps 746 mmHg 86%
    06:00 +1°C° 0 mm 1 mps 746 mmHg 85%
    07:00 +2°C° 0 mm 1 mps 746 mmHg 81%
    08:00 +3°C° 0 mm 1 mps 746 mmHg 77%
    09:00 +4°C° 0 mm 1 mps 746 mmHg 73%
    10:00 +5°C° 0 mm 1 mps 746 mmHg 70%
    11:00 +6°C° 0 mm 2 mps 746 mmHg 68%
    12:00 +7°C° 0 mm 2 mps 746 mmHg 65%
    13:00 +7°C° 0 mm 2 mps 746 mmHg 66%
    14:00 +7°C° 0 mm 3 mps 745 mmHg 66%
    15:00 +7°C° 0 mm 3 mps 745 mmHg 67%
    16:00 +5°C° 0 mm 3 mps 744 mmHg 71%
    17:00 +4°C° 0 mm 4 mps 744 mmHg 76%
    18:00 +3°C° 0 mm 4 mps 744 mmHg 81%
    19:00 +1°C° 0 mm 4 mps 744 mmHg 83%
    20:00 +1°C° 0 mm 4 mps 744 mmHg 86%
    21:00 +1°C° 0 mm 5 mps 744 mmHg 89%
    22:00 0°C° 0 mm 5 mps 744 mmHg 89%
    23:00 0°C° 0 mm 5 mps 744 mmHg 90%
    Show more